[[{"header":{"parameterUnit":"m.s-1","parameterCategory":1,"la1":30.2991,"la2":30.254,"lo1":-89.0895,"lo2":-89.0444,"dy":0.0017,"dx":0.0017,"nx":28,"ny":28,"refTime":"2025-09-15T21:00:00:Z","depth":0,"parameterNumber":2,"parameterNumberName":"U-component_of_WINDS"},"data":[0,0,0,0,0,0,0,0,0,0,0,0,0,0,0,0,0,0,0,0,0,0,0,0,0,0,0,0,0,0,0,0,0,0,0,0,0,0,0,0,0,0,0,0,0,0,0,0,0,0,0,0,0,0,0,0,0,0,-0.2067,-0.2067,0,-0.2052,-0.2052,-0.2052,-0.204,-0.2039,-0.2039,-0.2039,-0.2024,-0.2023,-0.2023,0,0,0,0,0,0,0,0,0,0,0,0,0,-0.2086,-0.2086,-0.2067,-0.2067,-0.2067,-0.2052,-0.2052,-0.2052,-0.204,-0.2039,-0.2039,-0.2039,-0.2024,-0.2023,-0.2023,0,0,0,0,0,0,0,0,0,0,0,0,0,-0.2075,-0.2085,-0.2067,-0.2059,-0.2058,-0.2052,-0.2052,-0.2052,-0.204,-0.2039,-0.2039,-0.2039,-0.2024,-0.2023,-0.2023,-0.2024,0,0,-0.2022,-0.2021,0,0,0,0,0,0,0,0,-0.2076,-0.2074,-0.206,-0.2059,-0.2058,-0.2047,-0.2053,-0.2042,-0.204,-0.2047,-0.2039,-0.2039,-0.2032,-0.2031,-0.2028,-0.2023,-0.2023,-0.2022,-0.2021,-0.2021,-0.2021,0,0,0,0,0,0,0,-0.2076,-0.2075,-0.2061,-0.206,-0.2059,-0.2056,-0.2054,-0.2051,-0.204,-0.2046,-0.2045,-0.2043,-0.2031,-0.2029,-0.2028,-0.2022,-0.2022,-0.2021,-0.2021,-0.2021,-0.2019,-0.202,0,0,0,0,0,0,-0.2078,-0.2076,-0.2061,-0.2061,-0.2067,-0.2056,-0.2054,-0.2051,-0.204,-0.2039,-0.2044,-0.2043,-0.203,-0.2028,-0.2027,-0.2029,-0.2021,-0.2021,-0.202,-0.2019,-0.2019,-0.202,0,0,0,0,0,0,-0.2079,-0.2077,-0.2062,-0.2068,-0.2066,-0.2056,-0.2053,-0.2051,-0.2048,-0.2039,-0.2037,-0.2043,-0.2029,-0.2028,-0.2025,-0.2028,-0.2021,-0.202,-0.2019,-0.2019,-0.202,-0.2031,0,0,0,0,0,0,-0.2079,-0.2077,-0.2077,-0.2068,-0.2065,-0.206,-0.2053,-0.2051,-0.2048,-0.2047,-0.2037,-0.2036,-0.2029,-0.2026,-0.2025,-0.2027,-0.202,-0.2019,-0.2019,-0.2019,-0.2031,-0.2032,-0.2033,0,0,0,0,0,-0.208,-0.2081,-0.2077,-0.2076,-0.2065,-0.206,-0.2059,-0.2051,-0.2048,-0.2048,-0.2042,-0.2036,-0.2028,-0.2026,-0.2024,-0.2027,-0.2018,-0.2019,-0.2019,-0.203,-0.2032,-0.2033,0,0,0,0,0,0,-0.209,-0.2079,-0.2075,-0.2073,-0.2068,-0.2058,-0.2058,-0.2053,-0.2048,-0.2048,-0.2038,-0.2036,-0.2035,-0.2031,-0.2029,-0.2028,-0.2022,-0.2023,-0.2031,-0.2033,-0.2034,-0.2035,-0.2019,0,0,0,0,0,-0.2092,-0.2089,-0.208,-0.2079,-0.2076,-0.2068,-0.2065,-0.206,-0.2054,-0.2052,-0.2046,-0.204,-0.2037,-0.2034,-0.203,-0.203,-0.2028,-0.2031,-0.2032,-0.2033,-0.2034,-0.2035,-0.2036,-0.2021,-0.2021,-0.2021,0,0,-0.2096,-0.209,-0.2088,-0.2081,-0.2076,-0.2073,-0.2066,-0.2063,-0.2061,-0.2051,-0.2049,-0.2044,-0.2038,-0.2037,-0.2036,-0.2033,-0.2038,-0.2034,-0.2035,-0.2035,-0.2035,-0.2037,-0.2038,-0.2022,-0.2022,-0.2022,0,0,-0.2102,-0.2097,-0.2096,-0.2092,-0.2085,-0.208,-0.208,-0.2071,-0.2068,-0.2066,-0.2058,-0.2056,-0.205,-0.2046,-0.2043,-0.205,-0.2045,-0.2049,-0.2055,-0.2057,-0.2058,-0.2059,-0.2062,-0.2063,-0.2049,-0.2049,-0.2049,0,-0.2108,-0.2104,-0.2096,-0.2094,-0.2091,-0.2083,-0.2083,-0.2079,-0.2071,-0.207,-0.2067,-0.206,-0.2054,-0.2053,-0.2055,-0.2053,-0.2053,-0.205,-0.2058,-0.2059,-0.206,-0.2063,-0.2064,-0.205,-0.205,-0.205,-0.205,0,-0.2111,-0.2109,-0.2109,-0.2103,-0.21,-0.2099,-0.2092,-0.209,-0.2085,-0.2081,-0.2079,-0.2073,-0.2068,-0.2068,-0.2063,-0.2066,-0.2065,-0.206,-0.2054,-0.2062,-0.2065,-0.2066,-0.2051,-0.2051,-0.205,-0.205,0,0,-0.2122,-0.2113,-0.2113,-0.2111,-0.2104,-0.2102,-0.2101,-0.2097,-0.2096,-0.2091,-0.2091,-0.2087,-0.2083,-0.208,-0.2075,-0.2075,-0.2083,-0.2071,-0.2071,-0.2074,-0.2088,-0.2092,-0.2093,-0.2079,-0.2079,-0.208,-0.2088,0,-0.2127,-0.2125,-0.2119,-0.2119,-0.2117,-0.211,-0.211,-0.2106,-0.2102,-0.21,-0.2095,-0.2093,-0.2088,-0.2086,-0.2087,-0.2082,-0.2085,-0.2081,-0.2079,-0.2079,-0.2082,-0.2094,-0.2098,-0.2107,-0.2089,-0.209,-0.209,0,-0.2133,-0.213,-0.213,-0.2124,-0.2123,-0.2123,-0.212,-0.2118,-0.2114,-0.2111,-0.2108,-0.2103,-0.2103,-0.2097,-0.2097,-0.2094,-0.2093,-0.2091,-0.2091,-0.2091,-0.2085,-0.2095,-0.2109,-0.2111,-0.2091,-0.2091,-0.2091,0,-0.2142,-0.2137,-0.2137,-0.2135,-0.2129,-0.2129,-0.2126,-0.2122,-0.2121,-0.2118,-0.2117,-0.2114,-0.2113,-0.2111,-0.2105,-0.2102,-0.2106,-0.21,-0.2104,-0.2104,-0.2105,-0.2105,-0.212,-0.2104,-0.2104,-0.2104,-0.2104,0,-0.2148,-0.2149,-0.2141,-0.2141,-0.2142,-0.2136,-0.2137,-0.2134,-0.213,-0.213,-0.2124,-0.2123,-0.2116,-0.2115,-0.2111,-0.2112,-0.2111,-0.2109,-0.2108,-0.211,-0.211,-0.2109,-0.2109,-0.2104,-0.2104,-0.2104,-0.2104,0,-0.2158,-0.2153,-0.2153,-0.2147,-0.2146,-0.2147,-0.2142,-0.2143,-0.2139,-0.2139,-0.2138,-0.2132,-0.2131,-0.2126,-0.2123,-0.212,-0.2123,-0.2121,-0.2125,-0.2124,-0.2129,-0.2129,-0.2144,-0.2146,-0.2128,-0.2129,-0.2129,0,-0.2163,-0.2163,-0.2158,-0.2158,-0.2156,-0.2155,-0.2154,-0.2148,-0.2147,-0.2144,-0.2145,-0.2143,-0.2142,-0.2141,-0.2137,-0.2135,-0.2133,-0.2138,-0.2132,-0.2135,-0.2134,-0.2134,-0.2135,-0.2139,-0.214,-0.214,-0.214,0,-0.2172,-0.217,-0.2168,-0.2167,-0.2166,-0.2165,-0.2162,-0.2163,-0.2157,-0.2156,-0.2156,-0.2155,-0.2153,-0.2152,-0.215,-0.2148,-0.2143,-0.2142,-0.2143,-0.2145,-0.2148,-0.2147,-0.2129,-0.2141,-0.2141,-0.2141,-0.2141,-0.2141,-0.2179,-0.218,-0.2177,-0.2177,-0.2175,-0.2174,-0.2174,-0.2171,-0.2171,-0.2169,-0.2166,-0.2166,-0.2164,-0.2161,-0.2159,-0.2159,-0.2157,-0.2158,-0.2158,-0.2159,-0.216,-0.2148,-0.2159,-0.2159,-0.2159,-0.2159,-0.2159,0,-0.2189,-0.2187,-0.2187,-0.2185,-0.2185,-0.2181,-0.2179,-0.218,-0.218,-0.2178,-0.2178,-0.2178,-0.2177,-0.2174,-0.2173,-0.2174,-0.2172,-0.2175,-0.2175,-0.2174,-0.2162,-0.2162,-0.2176,-0.2176,-0.2176,-0.2176,-0.2176,-0.2176,-0.2193,-0.2195,-0.2193,-0.2194,-0.2193,-0.2193,-0.2193,-0.2192,-0.2191,-0.2192,-0.2192,-0.219,-0.2188,-0.2187,-0.2187,-0.2186,-0.2186,-0.2189,-0.2188,-0.2177,-0.2175,-0.2173,-0.2173,-0.2189,-0.2189,-0.22,-0.22,-0.22]},{"header":{"parameterUnit":"m.s-1","parameterCategory":1,"la1":30.2991,"la2":30.254,"lo1":-89.0895,"lo2":-89.0444,"dy":0.0017,"dx":0.0017,"nx":28,"ny":28,"refTime":"2025-09-15T21:00:00:Z","depth":0,"parameterNumber":3,"parameterNumberName":"V-component_of_WINDS"},"data":[0,0,0,0,0,0,0,0,0,0,0,0,0,0,0,0,0,0,0,0,0,0,0,0,0,0,0,0,0,0,0,0,0,0,0,0,0,0,0,0,0,0,0,0,0,0,0,0,0,0,0,0,0,0,0,0,0,0,3.863,3.8629,0,3.8561,3.8561,3.856,3.8472,3.8471,3.8469,3.8468,3.8398,3.8397,3.8397,0,0,0,0,0,0,0,0,0,0,0,0,0,3.8683,3.8683,3.863,3.8629,3.8628,3.8562,3.8561,3.856,3.8472,3.8471,3.8469,3.8467,3.8398,3.8397,3.8397,0,0,0,0,0,0,0,0,0,0,0,0,0,3.8642,3.8683,3.863,3.8576,3.8571,3.8562,3.8561,3.8559,3.8473,3.8471,3.8468,3.8466,3.8398,3.8397,3.8397,3.8434,0,0,3.8394,3.8394,0,0,0,0,0,0,0,0,3.8645,3.864,3.8585,3.858,3.8574,3.8523,3.8554,3.8517,3.8473,3.851,3.8468,3.8465,3.8441,3.8437,3.8428,3.8431,3.8428,3.8394,3.8393,3.8393,3.8393,0,0,0,0,0,0,0,3.8648,3.8643,3.8603,3.8584,3.8578,3.8556,3.8547,3.8546,3.8488,3.8507,3.85,3.8493,3.8438,3.843,3.8426,3.8427,3.8394,3.8393,3.8393,3.8392,3.8454,3.8456,0,0,0,0,0,0,3.8659,3.8646,3.8605,3.8601,3.8605,3.8556,3.8547,3.8542,3.8488,3.8478,3.8495,3.8489,3.8432,3.8427,3.8423,3.8461,3.8393,3.8392,3.8392,3.8452,3.8454,3.8457,0,0,0,0,0,0,3.866,3.8656,3.8607,3.8621,3.8614,3.8558,3.8552,3.8541,3.8533,3.8479,3.8469,3.8497,3.843,3.8425,3.8432,3.8458,3.8392,3.8391,3.8449,3.8453,3.8456,3.854,0,0,0,0,0,0,3.8662,3.8657,3.8671,3.8622,3.8613,3.8617,3.8554,3.8542,3.8532,3.8524,3.8479,3.8469,3.8428,3.8433,3.8431,3.8456,3.8391,3.8447,3.8451,3.8455,3.8534,3.8546,3.8555,0,0,0,0,0,3.8664,3.8698,3.8672,3.8667,3.8629,3.8619,3.8614,3.8566,3.8534,3.8547,3.8513,3.8471,3.8456,3.8435,3.8431,3.8456,3.8445,3.845,3.8454,3.853,3.8543,3.8555,0,0,0,0,0,0,3.8751,3.869,3.8661,3.868,3.8655,3.8604,3.8619,3.8582,3.8566,3.8559,3.85,3.849,3.8504,3.8481,3.8458,3.8489,3.8444,3.8448,3.8503,3.8515,3.8525,3.8529,3.839,0,0,0,0,0,3.8772,3.8769,3.8716,3.8738,3.8727,3.8676,3.867,3.8635,3.8607,3.8596,3.8562,3.8536,3.8525,3.8519,3.8507,3.8532,3.8519,3.8547,3.8557,3.8566,3.857,3.8579,3.859,3.8472,3.8472,3.8472,0,0,3.8816,3.8782,3.8784,3.8754,3.8731,3.8728,3.8667,3.8668,3.8665,3.8596,3.8599,3.8574,3.8541,3.8557,3.8562,3.8538,3.86,3.8572,3.858,3.8578,3.8585,3.8596,3.8606,3.8476,3.8475,3.8475,0,0,3.8893,3.8869,3.8883,3.8861,3.8827,3.8792,3.8796,3.8751,3.8731,3.8734,3.8681,3.8677,3.8661,3.8639,3.8625,3.8695,3.8654,3.8693,3.8746,3.8755,3.8764,3.8772,3.8794,3.8803,3.8697,3.8697,3.8697,0,3.8952,3.8946,3.8895,3.8898,3.8886,3.8824,3.8837,3.8818,3.8782,3.8774,3.8748,3.8725,3.8699,3.8707,3.8724,3.8717,3.8717,3.8696,3.8767,3.8774,3.8781,3.8801,3.881,3.8702,3.8701,3.8701,3.87,0,3.9018,3.9015,3.9031,3.8996,3.8986,3.8995,3.8944,3.894,3.8907,3.8875,3.8878,3.8845,3.8823,3.8823,3.8791,3.8826,3.8812,3.8778,3.8731,3.8798,3.8816,3.8823,3.8708,3.8707,3.8705,3.8704,0,0,3.9146,3.9084,3.9091,3.9073,3.9031,3.9027,3.9033,3.9012,3.9008,3.8986,3.8987,3.8974,3.8942,3.8927,3.8891,3.89,3.8954,3.8864,3.8862,3.888,3.8988,3.9013,3.9023,3.8928,3.8929,3.8931,3.899,0,3.9214,3.9219,3.9174,3.919,3.9186,3.9127,3.9131,3.9105,3.9076,3.9067,3.9035,3.9025,3.8985,3.8975,3.8981,3.8946,3.8975,3.8942,3.8927,3.8927,3.8934,3.9033,3.9058,3.9116,3.8997,3.8999,3.8999,0,3.9293,3.9274,3.9291,3.9246,3.9242,3.9247,3.9223,3.9217,3.9186,3.9163,3.9147,3.9106,3.9107,3.9065,3.9064,3.9043,3.9034,3.9016,3.9017,3.9012,3.8965,3.9027,3.9134,3.9142,3.9011,3.901,3.9009,0,3.9382,3.9361,3.9367,3.9355,3.9304,3.9308,3.9287,3.9254,3.9244,3.9224,3.9216,3.9197,3.9185,3.917,3.9125,3.9099,3.9128,3.9083,3.9108,3.9109,3.9115,3.9115,3.9219,3.9115,3.9115,3.9114,3.9114,0,3.946,3.9472,3.9406,3.941,3.9421,3.9369,3.9381,3.9354,3.9325,3.9322,3.9271,3.9269,3.921,3.9201,3.9166,3.9169,3.9166,3.9146,3.9136,3.9149,3.9151,3.9141,3.9135,3.9117,3.9116,3.9116,3.9115,0,3.956,3.9517,3.9519,3.9471,3.9459,3.9469,3.9427,3.9428,3.9396,3.9393,3.9389,3.9338,3.9325,3.9279,3.9254,3.923,3.9244,3.9226,3.9254,3.9247,3.9274,3.9271,3.9373,3.9383,3.9275,3.9276,3.9277,0,3.9612,3.9619,3.9572,3.9566,3.9547,3.9539,3.9528,3.9477,3.9468,3.9433,3.9438,3.9421,3.9404,3.9385,3.9345,3.9326,3.9306,3.9343,3.9303,3.9315,3.9303,3.9302,3.9302,3.9351,3.9353,3.9354,3.9355,0,3.9707,3.9685,3.9672,3.9651,3.9639,3.962,3.9598,3.9597,3.954,3.9532,3.9518,3.9505,3.948,3.9462,3.9436,3.9414,3.9374,3.9368,3.9372,3.9385,3.9399,3.9389,3.9275,3.9365,3.9364,3.9364,3.9363,3.9363,3.9782,3.9785,3.9752,3.9738,3.9717,3.9697,3.9695,3.9663,3.965,3.9625,3.9597,3.9585,3.9553,3.9514,3.9495,3.9484,3.9463,3.947,3.9471,3.9473,3.9478,3.9403,3.948,3.9479,3.9479,3.9479,3.9478,0,3.9872,3.9848,3.9836,3.9807,3.9796,3.9761,3.9735,3.9728,3.9719,3.9692,3.9677,3.966,3.9643,3.9602,3.9581,3.958,3.9561,3.9576,3.9574,3.9569,3.95,3.9497,3.9591,3.9591,3.9591,3.9591,3.9591,3.9591,3.9918,3.992,3.9895,3.9886,3.9861,3.985,3.9838,3.9819,3.9797,3.9781,3.9766,3.974,3.9707,3.9683,3.9665,3.9654,3.9647,3.9667,3.9649,3.9585,3.9574,3.9564,3.9561,3.9667,3.9667,3.9719,3.9719,3.972]}]]